DW7126 Weather Reports


time (UTC)temp
C
wind
direction
speed
KPH
gust
KPH
rain 1hr
cm
rain 24hr
cm
rain mn
cm
humidity
%
barometer
mb
20180421014554 13 52 0.0 3.2 0.00 5.11 0.00 93 1014.5
20180421014025 13 52 0.0 0.0 0.00 5.11 0.00 93 1014.5
20180421013944 12 52 0.0 0.0 0.00 1.02 0.00 93 1014.4
20180421013534 13 52 0.0 0.0 0.00 5.11 0.00 93 1014.5
20180421013044 13 52 0.0 3.2 0.00 5.11 0.00 93 1014.4
20180421012542 13 52 1.6 4.8 0.00 5.11 0.00 93 1014.5
20180421012120 13 52 1.6 6.4 0.00 1.02 0.00 93 1014.4
20180421012025 13 52 3.2 6.4 0.00 5.11 0.00 93 1014.5
20180421011532 13 52 3.2 6.4 0.00 5.11 0.00 93 1014.6
20180421011034 13 51 6.4 6.4 0.00 5.11 0.00 93 1014.6
20180421010525 13 207 1.6 4.8 0.00 5.11 0.00 93 1014.8
20180421010241 13 207 1.6 4.8 0.00 1.02 0.00 93 1014.8
20180421010038 13 207 3.2 4.8 0.00 5.11 0.00 93 1015.0
20180421005537 13 159 0.0 8.0 0.00 5.11 0.00 93 1014.9
20180421005039 13 159 4.8 8.0 0.00 5.11 0.00 93 1014.8
20180421004530 13 159 6.4 8.0 0.00 5.11 0.00 93 1014.9
20180421004340 13 165 4.8 8.0 0.00 1.02 0.00 93 1014.8
20180421004023 13 160 4.8 8.0 0.00 5.11 0.00 93 1014.9
20180421003545 13 163 6.4 9.7 0.00 5.11 0.00 93 1014.9
20180421003039 13 161 6.4 9.7 0.00 5.11 0.00 93 1014.9
20180421002546 13 164 4.8 9.7 0.00 5.11 0.00 93 1014.8
20180421002525 13 163 4.8 9.7 0.00 1.02 0.00 93 1014.8
20180421002058 13 167 6.4 11.3 0.00 5.11 0.00 93 1014.8
20180421001557 13 161 8.0 11.3 0.00 5.11 0.00 93 1014.7
20180421001050 13 136 6.4 11.3 0.00 5.11 0.00 93 1014.7
20180421000716 12 196 3.2 9.7 0.00 1.02 0.00 93 1014.7
20180421000535 13 196 6.4 9.7 0.00 5.11 0.00 93 1014.7
20180421000026 13 195 8.0 11.3 0.00 5.11 0.00 93 1014.6
20180420235538 13 169 8.0 11.3 0.00 5.11 0.00 93 1014.6
20180420235031 13 165 4.8 8.0 0.00 5.11 0.00 93 1014.3
20180420234834 13 174 3.2 11.3 0.00 1.02 0.00 93 1014.2
20180420234525 13 169 4.8 11.3 0.00 5.11 0.00 93 1014.3
20180420234036 13 155 8.0 11.3 0.00 5.11 0.00 93 1014.3
20180420233520 13 146 3.2 6.4 0.00 5.11 0.00 93 1014.3
20180420233032 13 153 3.2 6.4 0.00 5.11 0.00 93 1014.2
20180420233000 12 167 3.2 6.4 0.00 1.02 0.00 93 1014.2
20180420232521 13 80 0.0 6.4 0.00 5.11 0.00 93 1014.1
20180420232030 13 72 3.2 6.4 0.00 5.11 0.00 93 1014.0
20180420231525 13 86 4.8 8.0 0.00 5.11 0.00 93 1014.0
20180420231131 13 92 3.2 8.0 0.00 1.02 0.00 93 1013.9
20180420231037 13 104 3.2 8.0 0.00 5.11 0.00 93 1014.0
20180420230521 13 67 3.2 9.7 0.00 5.11 0.00 93 1013.9
20180420230043 13 99 6.4 9.7 0.00 5.11 0.00 93 1013.9
20180420225542 13 93 1.6 4.8 0.00 5.11 1.02 93 1013.9
20180420225308 13 38 0.0 3.2 0.00 1.02 1.02 93 1013.9
20180420225021 13 38 1.6 8.0 0.00 5.11 1.02 93 1014.0
20180420224518 13 38 3.2 9.7 0.00 5.11 1.02 93 1013.9
20180420224034 13 30 3.2 9.7 0.00 5.11 1.02 93 1013.9
20180420223535 13 29 6.4 8.0 0.00 5.11 1.02 93 1014.0
20180420223451 13 55 6.4 8.0 0.00 1.02 1.02 93 1013.9
20180420223023 13 59 4.8 8.0 0.00 5.11 1.02 93 1013.9
20180420222537 13 63 6.4 8.0 0.00 5.11 1.02 93 1014.0
20180420222036 13 48 4.8 8.0 0.00 5.11 1.02 93 1013.9
20180420221649 13 46 1.6 6.4 0.00 1.02 1.02 93 1013.9
20180420221531 13 46 3.2 4.8 0.00 5.11 1.02 93 1014.0
20180420221024 13 70 1.6 8.0 0.00 5.11 1.02 93 1013.9
20180420220520 13 55 3.2 11.3 0.00 5.11 1.02 93 1014.0
20180420220024 13 51 4.8 11.3 0.00 5.11 1.02 93 1014.1
20180420215812 13 51 4.8 11.3 0.00 1.02 1.02 93 1014.0
20180420215533 13 71 4.8 12.9 0.00 5.11 1.02 93 1014.2
20180420215025 13 54 4.8 12.9 0.00 5.11 1.02 93 1014.2
20180420214520 13 29 4.8 12.9 0.00 5.11 1.02 93 1014.2
20180420214037 13 59 4.8 20.9 0.00 5.11 1.02 93 1014.2
20180420213948 13 29 4.8 20.9 0.00 1.02 1.02 93 1014.1
20180420213526 13 39 4.8 20.9 0.10 5.11 1.02 93 1014.1
20180420213030 13 43 8.0 25.7 0.10 5.11 1.02 93 1014.1
20180420212539 13 52 9.7 27.4 0.30 5.11 1.02 93 1014.1
20180420212117 13 360 12.9 27.4 0.15 1.02 1.02 93 1014.0
20180420212035 13 23 9.7 25.7 0.71 5.11 1.02 93 1014.1
20180420211526 13 14 12.9 30.6 1.09 5.11 1.02 93 1014.0
20180420211039 13 39 12.9 27.4 1.40 5.11 1.02 93 1013.9
20180420210524 13 65 12.9 25.7 1.91 5.11 1.02 93 1013.9
20180420210228 13 360 12.9 30.6 0.38 1.02 1.02 93 1013.7
20180420210036 13 54 12.9 30.6 2.01 5.11 1.02 93 1013.8
20180420205530 13 69 12.9 27.4 2.39 5.11 1.02 93 1013.8
20180420205021 13 26 16.1 25.7 2.69 5.11 1.02 93 1013.7
20180420204547 14 27 17.7 27.4 2.79 5.11 1.02 93 1013.6
20180420204410 13 35 14.5 27.4 0.58 1.02 1.02 93 1013.5
20180420204022 14 28 20.9 27.4 3.30 5.11 1.02 93 1013.8
20180420203526 14 24 12.9 19.3 3.99 5.00 0.99 93 1014.3
20180420203037 14 11 12.9 20.9 4.60 5.00 0.99 93 1014.8
20180420202606 14 30 14.5 20.9 0.97 0.97 0.97 93 1015.0
20180420202530 14 55 16.1 20.9 4.70 4.70 0.94 93 1015.4
20180420202029 15 94 9.7 12.9 4.39 4.39 0.89 92 1015.8
20180420201541 15 79 4.8 8.0 3.99 3.99 0.79 92 1015.4
20180420201025 15 9 4.8 6.4 3.61 3.61 0.71 92 1015.1
20180420200745 14 325 1.6 4.8 0.69 0.69 0.69 92 1015.0
20180420200536 15 360 3.2 8.0 3.20 3.20 0.64 92 1015.1
20180420200039 15 355 3.2 8.0 3.00 3.00 0.61 92 1015.2
20180420195545 15 41 1.6 6.4 2.69 2.69 0.53 91 1015.3
20180420195021 15 296 1.6 6.4 2.39 2.39 0.48 90 1015.2
20180420194911 15 355 1.6 6.4 0.48 0.48 0.48 91 1015.2
20180420194542 15 331 3.2 6.4 2.31 2.31 0.46 90 1015.2
20180420194054 15 102 0.0 16.1 1.91 1.91 0.38 89 1015.4
20180420193540 15 189 9.7 16.1 0.99 0.99 0.20 88 1015.7
20180420193107 15 206 9.7 16.1 0.08 0.08 0.08 86 1015.3
20180420193037 16 193 11.3 16.1 0.30 0.30 0.05 86 1015.4
20180420192524 16 195 11.3 16.1 0.00 0.00 0.00 84 1015.1
20180420192016 16 237 3.2 8.0 0.00 0.00 0.00 82 1014.8
20180420191540 16 240 1.6 9.7 0.00 0.00 0.00 82 1014.9
20180420191221 16 236 4.8 11.3 0.00 0.00 0.00 82 1014.8
20180420191020 16 235 6.4 11.3 0.00 0.00 0.00 81 1014.8
20180420190533 16 273 6.4 24.1 0.00 0.00 0.00 81 1014.6
20180420190028 16 306 9.7 29.0 0.00 0.00 0.00 81 1014.5
20180420185534 16 246 20.9 29.0 0.00 0.00 0.00 81 1014.7
20180420185341 16 236 9.7 17.7 0.00 0.00 0.00 80 1014.5
20180420185039 17 270 3.2 9.7 0.00 0.00 0.00 78 1014.3
20180420184537 17 327 4.8 14.5 0.00 0.00 0.00 78 1014.1
20180420184027 17 26 6.4 14.5 0.00 0.00 0.00 78 1013.9
20180420183547 17 24 11.3 14.5 0.00 0.00 0.00 78 1013.8
20180420183514 17 28 9.7 14.5 0.00 0.00 0.00 78 1013.7
20180420183039 17 46 6.4 11.3 0.00 0.00 0.00 78 1013.9
20180420182545 17 42 4.8 11.3 0.00 0.00 0.00 77 1014.0
20180420182055 17 19 6.4 8.0 0.00 0.00 0.00 76 1014.1
20180420181700 17 15 3.2 6.4 0.00 0.00 0.00 76 1014.0
20180420181524 17 355 4.8 6.4 0.00 0.00 0.00 75 1013.9
20180420181019 17 28 3.2 6.4 0.00 0.00 0.00 76 1013.8
20180420180530 17 5 1.6 6.4 0.00 0.00 0.00 77 1013.7
20180420180038 17 338 3.2 8.0 0.00 0.00 0.00 78 1013.8
20180420175839 16 343 3.2 8.0 0.00 0.00 0.00 79 1013.7
20180420175523 17 283 4.8 8.0 0.00 0.00 0.00 79 1013.9
20180420175039 16 320 3.2 8.0 0.00 0.00 0.00 79 1013.8
20180420174542 17 274 3.2 9.7 0.00 0.00 0.00 79 1013.9
20180420174036 17 261 6.4 14.5 0.00 0.00 0.00 79 1013.7
20180420174020 16 275 4.8 14.5 0.00 0.00 0.00 79 1013.6
20180420173553 17 249 12.9 14.5 0.00 0.00 0.00 81 1013.7
20180420173047 17 279 3.2 6.4 0.00 0.00 0.00 80 1013.6
20180420172552 17 263 4.8 6.4 0.00 0.00 0.00 79 1013.5
20180420172157 17 305 1.6 6.4 0.00 0.00 0.00 79 1013.4
20180420172024 17 309 1.6 6.4 0.00 0.00 0.00 78 1013.5
20180420171542 17 11 1.6 14.5 0.00 0.00 0.00 78 1013.4
20180420171033 17 288 8.0 14.5 0.00 0.00 0.00 80 1013.5
20180420170535 17 262 8.0 14.5 0.00 0.00 0.00 79 1013.5
20180420170327 17 260 8.0 12.9 0.00 0.00 0.00 79 1013.3
20180420170028 17 259 4.8 14.5 0.00 0.00 0.00 79 1013.3
20180420165530 17 23 6.4 14.5 0.00 0.00 0.00 78 1013.1
20180420165024 17 51 6.4 17.7 0.00 0.00 0.00 78 1012.9
20180420164552 17 42 11.3 17.7 0.00 0.00 0.00 78 1012.9
20180420164531 17 55 11.3 17.7 0.00 0.00 0.00 78 1013.0
20180420164022 17 36 8.0 11.3 0.00 0.00 0.00 78 1013.2
20180420163525 17 9 3.2 8.0 0.00 0.00 0.00 80 1013.4
20180420163042 17 327 3.2 9.7 0.00 0.00 0.00 80 1013.5
20180420162745 17 344 6.4 9.7 0.00 0.00 0.00 81 1013.4
20180420162542 17 334 4.8 9.7 0.00 0.00 0.00 81 1013.5
20180420162037 17 347 6.4 9.7 0.00 0.00 0.00 81 1013.4
20180420161551 17 319 4.8 9.7 0.00 0.00 0.00 81 1013.4
20180420161020 17 307 6.4 9.7 0.00 0.00 0.00 81 1013.5
20180420160923 17 343 4.8 9.7 0.00 0.00 0.00 81 1013.5
20180420160535 17 300 4.8 9.7 0.00 0.00 0.00 82 1013.7
20180420160026 17 277 6.4 9.7 0.00 0.00 0.00 80 1013.6
20180420155520 17 254 4.8 9.7 0.00 0.00 0.00 78 1013.5
20180420155128 17 257 4.8 9.7 0.00 0.00 0.00 80 1013.5
20180420155034 17 265 6.4 11.3 0.00 0.00 0.00 80 1013.6
20180420154524 17 279 4.8 12.9 0.00 0.00 0.00 79 1013.6
20180420154034 17 248 8.0 16.1 0.00 0.00 0.00 79 1013.5
20180420153521 17 261 8.0 16.1 0.00 0.00 0.00 78 1013.5
20180420153303 17 256 9.7 16.1 0.00 0.00 0.00 78 1013.4
20180420153049 17 244 9.7 12.9 0.00 0.00 0.00 80 1013.5
20180420152535 17 270 8.0 16.1 0.00 0.00 0.00 79 1013.4
20180420152037 17 258 8.0 17.7 0.00 0.00 0.00 77 1013.4
20180420151527 17 271 6.4 19.3 0.00 0.00 0.00 78 1013.3
20180420151415 17 267 6.4 19.3 0.00 0.00 0.00 77 1013.2
20180420151043 18 239 14.5 19.3 0.00 0.00 0.00 76 1013.4
20180420150525 18 258 8.0 24.1 0.00 0.00 0.00 77 1013.2
20180420150054 18 242 9.7 24.1 0.00 0.00 0.00 77 1013.2
20180420145607 18 232 16.1 24.1 0.00 0.00 0.00 77 1013.2
20180420145519 18 232 16.1 24.1 0.00 0.00 0.00 77 1013.4
20180420145033 18 201 6.4 11.3 0.00 0.00 0.00 77 1013.4
20180420144524 18 197 4.8 20.9 0.00 0.00 0.00 78 1013.3
20180420144033 18 195 11.3 24.1 0.00 0.00 0.00 79 1013.4
20180420143742 17 246 16.1 25.7 0.00 0.00 0.00 79 1013.3
20180420143544 17 264 17.7 25.7 0.00 0.00 0.00 79 1013.4
20180420143046 17 239 17.7 32.2 0.00 0.00 0.00 78 1013.4
20180420142547 17 223 25.7 32.2 0.00 0.00 0.00 78 1013.7
20180420142024 17 233 19.3 43.5 0.00 0.00 0.00 78 1013.5
20180420141912 17 234 20.9 43.5 0.00 0.00 0.00 78 1013.4
20180420141519 17 232 29.0 43.5 0.00 0.00 0.00 79 1013.5
20180420141044 17 225 29.0 45.1 0.00 0.00 0.00 79 1013.7
20180420140524 17 246 33.8 49.9 0.00 0.00 0.00 76 1013.5
20180420140102 17 258 38.6 49.9 0.00 0.00 0.00 72 1013.4
20180420140028 18 215 38.6 49.9 0.00 0.00 0.00 70 1013.6
20180420135538 20 250 20.9 32.2 0.00 0.00 0.00 69 1013.7
20180420135038 20 252 19.3 29.0 0.00 0.00 0.00 66 1013.7
20180420134542 23 184 11.3 22.5 0.00 0.00 0.00 53 1013.6
20180420134229 23 202 11.3 22.5 0.00 0.00 0.00 53 1013.5
20180420134033 23 197 12.9 22.5 0.00 0.00 0.00 52 1013.6
20180420133539 24 178 6.4 20.9 0.00 0.00 0.00 52 1013.7
20180420133034 24 175 8.0 25.7 0.00 0.00 0.00 51 1013.8
20180420132524 24 144 14.5 24.1 0.00 0.00 0.00 52 1013.7
20180420132350 23 138 11.3 24.1 0.00 0.00 0.00 52 1013.5
20180420132028 23 110 9.7 24.1 0.00 0.00 0.00 53 1013.6
20180420131532 24 155 12.9 25.7 0.00 0.00 0.00 51 1013.5
20180420131037 23 118 17.7 24.1 0.00 0.00 0.00 53 1013.5
20180420130541 23 136 17.7 27.4 0.00 0.00 0.00 51 1013.5
20180420130516 23 125 17.7 27.4 0.00 0.00 0.00 51 1013.4
20180420130027 23 126 17.7 30.6 0.00 0.00 0.00 52 1013.5
20180420125527 23 195 17.7 37.0 0.00 0.00 0.00 51 1013.4
20180420125029 23 103 17.7 37.0 0.00 0.00 0.00 51 1013.3
20180420124726 23 88 24.1 37.0 0.00 0.00 0.00 50 1013.0
20180420124540 23 121 22.5 37.0 0.00 0.00 0.00 51 1013.1
20180420124034 23 83 19.3 43.5 0.00 0.00 0.00 54 1012.9
20180420123526 23 65 29.0 43.5 0.00 0.00 0.00 55 1012.6
20180420123039 23 91 25.7 49.9 0.00 0.00 0.00 56 1012.6
20180420122849 22 94 24.1 49.9 0.00 0.00 0.00 56 1012.5
20180420122525 22 101 32.2 49.9 0.00 0.00 0.00 55 1012.6
20180420122039 22 90 37.0 51.5 0.00 0.00 0.00 55 1012.5
20180420121524 22 121 27.4 53.1 0.00 0.00 0.00 56 1012.4
20180420121041 22 62 40.2 53.1 0.00 0.00 0.00 55 1012.2
20180420121024 22 80 37.0 56.3 0.00 0.00 0.00 55 1012.3
20180420120549 22 91 20.9 43.5 0.00 0.00 0.00 59 1012.4
20180420120026 22 84 30.6 41.8 0.00 0.00 0.00 59 1012.3
20180420115551 22 81 24.1 41.8 0.00 0.00 0.00 61 1012.4
20180420115212 21 46 29.0 41.8 0.00 0.00 0.00 61 1012.3
20180420115036 21 51 29.0 41.8 0.00 0.00 0.00 62 1012.4
20180420114532 21 53 11.3 27.4 0.00 0.00 0.00 64 1012.8
20180420114041 21 65 17.7 27.4 0.00 0.00 0.00 63 1013.0
20180420113531 21 82 12.9 35.4 0.00 0.00 0.00 63 1013.0
20180420113349 21 86 12.9 35.4 0.00 0.00 0.00 63 1013.0
20180420113027 21 87 16.1 41.8 0.00 0.00 0.00 64 1013.1
20180420112532 21 79 22.5 41.8 0.00 0.00 0.00 64 1013.0
20180420112025 21 61 24.1 40.2 0.00 0.00 0.00 64 1012.8
20180420111539 21 84 14.5 32.2 0.00 0.00 0.00 66 1012.7
20180420111503 21 71 14.5 32.2 0.00 0.00 0.00 66 1012.6
20180420111038 21 69 20.9 32.2 0.00 0.00 0.00 65 1012.6
20180420110535 21 71 22.5 33.8 0.00 0.00 0.00 65 1012.5
20180420110027 21 52 22.5 37.0 0.00 0.00 0.00 66 1012.8
20180420105714 21 82 17.7 37.0 0.00 0.00 0.00 65 1012.8
20180420105530 21 76 16.1 37.0 0.00 0.00 0.00 66 1012.9
20180420105027 21 49 24.1 35.4 0.00 0.00 0.00 64 1012.8
20180420104533 21 56 16.1 33.8 0.00 0.00 0.00 66 1013.0
20180420104037 21 82 22.5 33.8 0.00 0.00 0.00 65 1012.9
20180420103857 21 63 19.3 33.8 0.00 0.00 0.00 66 1012.8
20180420103529 21 60 19.3 33.8 0.00 0.00 0.00 66 1012.9
20180420103055 21 62 24.1 43.5 0.00 0.00 0.00 65 1012.9
20180420102535 21 85 24.1 43.5 0.00 0.00 0.00 66 1013.0
20180420102111 20 65 22.5 40.2 0.00 0.00 0.00 66 1012.8
20180420102036 21 66 22.5 45.1 0.00 0.00 0.00 66 1012.9
20180420101522 20 100 22.5 46.7 0.00 0.00 0.00 66 1012.8
20180420101020 21 111 29.0 46.7 0.00 0.00 0.00 66 1012.7
20180420100536 20 96 29.0 41.8 0.00 0.00 0.00 66 1012.8
20180420100228 20 105 20.9 41.8 0.00 0.00 0.00 68 1012.8
20180420100031 20 118 17.7 41.8 0.00 0.00 0.00 68 1012.8
20180420095537 20 65 25.7 45.1 0.00 0.00 0.00 69 1012.8
20180420095038 20 86 25.7 45.1 0.00 0.00 0.00 70 1012.7
20180420094539 20 118 24.1 40.2 0.00 0.00 0.00 69 1012.8
20180420094345 19 100 29.0 43.5 0.00 0.00 0.00 70 1012.6
20180420094027 19 63 27.4 48.3 0.00 0.00 0.00 70 1012.7
20180420093540 19 76 33.8 48.3 0.00 0.00 0.00 70 1012.8
20180420093032 19 72 29.0 43.5 0.00 0.00 0.00 72 1012.7
20180420092549 18 65 32.2 41.8 0.00 0.00 0.00 73 1012.8
20180420092513 18 82 30.6 41.8 0.00 0.00 0.00 72 1012.7
20180420092038 18 69 24.1 38.6 0.00 0.00 0.00 74 1012.9
20180420091550 18 95 24.1 37.0 0.00 0.00 0.00 75 1013.0
20180420091041 17 40 20.9 41.8 0.00 0.00 0.00 75 1013.0
20180420090649 17 61 29.0 41.8 0.00 0.00 0.00 75 1012.9
20180420090551 17 78 25.7 38.6 0.00 0.00 0.00 75 1013.0
20180420090047 17 40 25.7 38.6 0.00 0.00 0.00 75 1013.1
20180420085524 17 63 22.5 37.0 0.00 0.00 0.00 76 1013.3
20180420085021 17 74 25.7 33.8 0.00 0.00 0.00 76 1013.3
20180420084829 16 97 20.9 33.8 0.00 0.00 0.00 76 1013.4
20180420084540 17 79 20.9 33.8 0.00 0.00 0.00 76 1013.5
20180420084040 17 37 11.3 22.5 0.00 0.00 0.00 78 1013.5
20180420083534 16 52 12.9 22.5 0.00 0.00 0.00 78 1013.7
20180420083037 16 57 14.5 25.7 0.00 0.00 0.00 79 1013.7
20180420083011 16 58 14.5 25.7 0.00 0.00 0.00 79 1013.6
20180420082548 16 67 16.1 25.7 0.00 0.00 0.00 78 1013.9
20180420082025 16 75 16.1 22.5 0.00 0.00 0.00 78 1013.9
20180420081526 16 61 12.9 19.3 0.00 0.00 0.00 78 1014.0
20180420081208 16 55 12.9 19.3 0.00 0.00 0.00 78 1014.0
20180420081025 16 46 11.3 19.3 0.00 0.00 0.00 79 1014.1
20180420080534 16 49 12.9 19.3 0.00 0.00 0.00 78 1014.1
20180420080024 16 72 14.5 22.5 0.00 0.00 0.00 78 1014.0
20180420075527 16 67 14.5 27.4 0.00 0.00 0.00 78 1014.1
20180420075322 16 66 12.9 27.4 0.00 0.00 0.00 78 1014.0
20180420075040 16 63 22.5 37.0 0.00 0.00 0.00 77 1014.0
20180420074537 16 46 24.1 37.0 0.00 0.00 0.00 77 1013.9
20180420074024 16 78 20.9 35.4 0.00 0.00 0.00 78 1013.9
20180420073525 16 86 24.1 37.0 0.00 0.00 0.00 78 1013.9
20180420073443 16 76 22.5 37.0 0.00 0.00 0.00 78 1013.8
20180420073034 16 63 24.1 35.4 0.00 0.00 0.00 79 1013.8
20180420072522 16 82 22.5 29.0 0.00 0.00 0.00 80 1013.7
20180420072035 16 95 22.5 35.4 0.00 0.00 0.00 80 1013.6
20180420071655 15 78 22.5 35.4 0.00 0.00 0.00 81 1013.5
20180420071547 16 76 20.9 32.2 0.00 0.00 0.00 81 1013.5
20180420071050 15 54 16.1 24.1 0.00 0.00 0.00 82 1013.4
20180420070553 15 47 12.9 24.1 0.00 0.00 0.00 83 1013.6
20180420070039 15 58 9.7 17.7 0.00 0.00 0.00 83 1013.6
20180420065825 15 85 8.0 17.7 0.00 0.00 0.00 83 1013.5
20180420065524 15 61 11.3 20.9 0.00 0.00 0.00 83 1013.6
20180420065037 15 89 11.3 20.9 0.00 0.00 0.00 83 1013.6
20180420064533 15 82 12.9 24.1 0.00 0.00 0.00 84 1013.6
20180420064025 15 72 14.5 24.1 0.00 0.00 0.00 84 1013.5
20180420063954 14 85 12.9 24.1 0.00 0.00 0.00 84 1013.4
20180420063540 15 60 12.9 20.9 0.00 0.00 0.00 84 1013.4
20180420063035 15 84 12.9 20.9 0.00 0.00 0.00 84 1013.5
20180420062525 15 61 6.4 17.7 0.00 0.00 0.00 83 1013.4
20180420062144 15 88 9.7 20.9 0.00 0.00 0.00 83 1013.3
20180420062034 15 78 9.7 20.9 0.00 0.00 0.00 83 1013.4
20180420061538 15 100 12.9 20.9 0.00 0.00 0.00 83 1013.5
20180420061037 15 97 9.7 17.7 0.00 0.00 0.00 83 1013.4
20180420060525 15 101 12.9 17.7 0.00 0.00 0.00 82 1013.3
20180420060231 15 107 11.3 17.7 0.00 0.00 0.00 82 1013.2
20180420060036 15 101 11.3 17.7 0.00 0.00 0.00 82 1013.3
20180420055529 15 87 12.9 17.7 0.00 0.00 0.00 82 1013.3
20180420055024 15 90 12.9 17.7 0.00 0.00 0.00 83 1013.3
20180420054538 15 88 12.9 19.3 0.00 0.00 0.00 83 1013.2
20180420054405 15 103 9.7 19.3 0.00 0.00 0.00 83 1013.1
20180420054047 15 109 14.5 19.3 0.00 0.00 0.00 84 1013.2
20180420053536 15 103 12.9 20.9 0.00 0.00 0.00 84 1013.1
20180420053039 15 87 16.1 24.1 0.00 0.00 0.00 85 1013.1
20180420052525 15 98 14.5 24.1 0.00 0.00 0.00 85 1013.1
20180420052508 15 101 14.5 24.1 0.00 0.00 0.00 85 1013.1
20180420052050 15 85 14.5 27.4 0.00 0.00 0.00 86 1013.2
20180420051527 15 90 20.9 29.0 0.00 0.00 0.00 86 1013.1
20180420051021 15 96 17.7 30.6 0.00 0.00 0.00 86 1013.0
20180420050706 15 82 22.5 30.6 0.00 0.00 0.00 86 1013.0
20180420050533 15 80 20.9 30.6 0.00 0.00 0.00 85 1013.0
20180420050039 15 92 22.5 30.6 0.00 0.00 0.00 85 1012.9
20180420045537 15 107 20.9 33.8 0.00 0.00 0.00 86 1012.7
20180420045040 15 90 20.9 33.8 0.00 0.00 0.00 86 1012.7
20180420044837 15 99 22.5 33.8 0.00 0.00 0.00 86 1012.6
20180420044531 15 111 20.9 29.0 0.00 0.00 0.00 86 1012.5
20180420044021 15 105 20.9 35.4 0.00 0.00 0.00 87 1012.4
20180420043536 15 98 25.7 35.4 0.00 0.00 0.00 86 1012.3
20180420043027 15 109 24.1 35.4 0.00 0.00 0.00 87 1012.3
20180420042959 15 84 22.5 35.4 0.00 0.00 0.00 87 1012.2
20180420042531 15 107 19.3 27.4 0.00 0.00 0.00 88 1012.2
20180420042023 14 101 20.9 27.4 0.00 0.00 0.00 89 1012.2
20180420041532 14 97 19.3 27.4 0.00 0.00 0.00 90 1012.2
20180420041123 13 83 19.3 29.0 0.00 0.00 0.00 92 1012.1
20180420041024 13 98 20.9 29.0 0.00 0.00 0.00 92 1012.2
20180420040542 13 101 20.9 29.0 0.00 0.00 0.00 93 1012.2
20180420040039 13 96 17.7 24.1 0.00 0.00 0.00 92 1012.2
20180420035550 12 83 14.5 24.1 0.00 0.00 0.00 91 1012.2
20180420035253 12 92 14.5 24.1 0.00 0.00 0.00 90 1012.2
20180420035037 12 59 12.9 17.7 0.00 0.00 0.00 90 1012.3
20180420034527 12 87 11.3 17.7 0.00 0.00 0.00 91 1012.4
20180420034036 11 88 3.2 8.0 0.00 0.00 0.00 91 1012.5
20180420033529 11 62 0.0 3.2 0.00 0.00 0.00 91 1012.5
20180420033437 11 62 0.0 3.2 0.00 0.00 0.00 91 1012.4
20180420033026 11 62 0.0 1.6 0.00 0.00 0.00 91 1012.6
20180420032532 11 62 0.0 4.8 0.00 0.00 0.00 91 1012.7
20180420032022 11 62 3.2 6.4 0.00 0.00 0.00 91 1012.7
20180420031621 11 62 3.2 11.3 0.00 0.00 0.00 91 1012.7
20180420031543 12 62 4.8 11.3 0.00 0.00 0.00 91 1012.8
20180420031032 12 51 4.8 11.3 0.00 0.00 0.00 91 1012.9
20180420030531 12 34 6.4 8.0 0.00 0.00 0.00 91 1013.0
20180420030035 12 57 3.2 8.0 0.00 0.00 0.00 91 1013.0
20180420025731 12 61 4.8 8.0 0.00 0.00 0.00 91 1012.9
20180420025524 12 64 3.2 9.7 0.00 0.00 0.00 91 1013.1
20180420025033 12 59 4.8 9.7 0.00 0.00 0.00 91 1013.1
20180420024522 12 54 6.4 11.3 0.00 0.00 0.00 91 1013.2
20180420024040 12 56 4.8 12.9 0.00 0.00 0.00 92 1013.2
20180420023904 12 59 3.2 12.9 0.00 0.00 0.00 92 1013.2
20180420023533 12 63 6.4 12.9 0.00 0.00 0.00 91 1013.3
20180420023024 12 128 1.6 3.2 0.00 0.00 0.00 91 1013.4
20180420022524 12 128 0.0 8.0 0.00 0.00 0.00 92 1013.5
20180420022054 12 128 0.0 9.7 0.00 0.00 0.00 92 1013.6
20180420022025 12 128 0.0 9.7 0.00 0.00 0.00 92 1013.5
20180420021544 12 100 4.8 11.3 0.00 0.00 0.00 92 1013.5
20180420021047 12 132 6.4 11.3 0.00 0.00 0.00 92 1013.5
20180420020620 12 123 3.2 8.0 0.00 0.00 0.00 92 1013.6
20180420020054 12 149 3.2 6.4 0.00 0.00 0.00 92 1013.6
20180420020025 12 109 0.0 8.0 0.00 0.00 0.00 92 1013.5
20180420015612 12 98 1.6 4.8 0.00 0.00 0.00 92 1013.7
20180420015040 12 102 1.6 6.4 0.00 0.00 0.00 92 1013.7